Location: Czekanka
(50.4925°N, 19.2643°E)
Time: 02:16:17
(UTC+00:00)

ADEOS II - Pass Details

Date: 18 September 2024
Orbit: 795 x 798 km, 98.7° (Epoch: 09 October)

Event Time Altitude Azimuth Distance (km) Brightness Sun altitude
Rises 01:52:28 0° 11° (NNE) 3,312 6.0 -23.3°
Reaches altitude 10° 01:54:51 10° 7° (N) 2,378 5.1 -23.0°
Maximum altitude 01:59:56 53° 292° (WNW) 975 2.3 -22.3°
Enters shadow 02:00:40 49° 262° (W) 1,025 2.2 -22.2°
